TimeCST,TemperatureF,Dew PointF,Humidity,Sea Level PressureIn,VisibilityMPH,Wind Direction,Wind SpeedMPH,Gust SpeedMPH,PrecipitationIn,Events,Conditions,WindDirDegrees,DateUTC
12:53 AM,10.0,-4.0,53,30.68,10.0,NNE,10.4,-,N/A,,Clear,30,2013-12-07 06:53:00
1:53 AM,9.0,-2.9,59,30.70,10.0,NE,10.4,-,N/A,,Clear,40,2013-12-07 07:53:00
2:53 AM,9.0,-2.9,59,30.70,10.0,NNE,10.4,-,N/A,,Clear,30,2013-12-07 08:53:00
3:53 AM,7.0,-2.9,64,30.71,10.0,NE,8.1,-,N/A,,Clear,40,2013-12-07 09:53:00
4:53 AM,7.0,-2.9,64,30.70,10.0,NNE,9.2,-,N/A,,Clear,30,2013-12-07 10:53:00
5:53 AM,7.0,-2.9,64,30.71,10.0,NE,9.2,-,N/A,,Clear,40,2013-12-07 11:53:00
6:53 AM,6.1,-2.0,69,30.71,10.0,NNE,10.4,-,N/A,,Clear,30,2013-12-07 12:53:00
7:53 AM,6.1,-2.0,69,30.72,10.0,NE,10.4,-,N/A,,Partly Cloudy,40,2013-12-07 13:53:00
8:53 AM,9.0,-0.9,64,30.71,10.0,NE,12.7,-,N/A,,Partly Cloudy,40,2013-12-07 14:53:00
9:53 AM,12.0,-0.0,59,30.72,10.0,NE,9.2,-,N/A,,Scattered Clouds,40,2013-12-07 15:53:00
10:53 AM,15.1,-0.0,51,30.70,10.0,East,8.1,-,N/A,,Scattered Clouds,80,2013-12-07 16:53:00
11:53 AM,19.0,-0.0,43,30.66,10.0,ESE,9.2,-,N/A,,Mostly Cloudy,110,2013-12-07 17:53:00
12:53 PM,19.9,-0.0,42,30.59,10.0,Variable,5.8,-,0.01,,Mostly Cloudy,0,2013-12-07 18:53:00
1:53 PM,23.0,-0.0,37,30.54,10.0,ESE,9.2,-,N/A,,Overcast,110,2013-12-07 19:53:00
2:53 PM,23.0,-0.9,35,30.49,10.0,East,10.4,-,N/A,,Overcast,90,2013-12-07 20:53:00
3:53 PM,23.0,1.0,39,30.49,10.0,ESE,10.4,-,N/A,,Overcast,120,2013-12-07 21:53:00
4:53 PM,21.9,1.0,40,30.48,10.0,ESE,8.1,-,N/A,,Overcast,110,2013-12-07 22:53:00
5:53 PM,21.9,1.9,42,30.46,10.0,East,8.1,-,N/A,,Overcast,100,2013-12-07 23:53:00
6:53 PM,21.9,3.0,44,30.43,10.0,East,11.5,-,N/A,,Overcast,100,2013-12-08 00:53:00
7:53 PM,21.9,1.9,42,30.39,10.0,East,15.0,-,N/A,,Overcast,100,2013-12-08 01:53:00
8:53 PM,21.0,3.0,46,30.38,10.0,ESE,11.5,-,N/A,,Overcast,110,2013-12-08 02:53:00
9:53 PM,21.0,3.9,48,30.37,10.0,ESE,12.7,-,N/A,,Overcast,110,2013-12-08 03:53:00
10:53 PM,19.9,5.0,52,30.35,10.0,SE,11.5,-,N/A,,Overcast,130,2013-12-08 04:53:00
11:53 PM,19.9,6.1,55,30.32,10.0,SE,8.1,-,N/A,,Overcast,140,2013-12-08 05:53:00